����,���ϕ���(m/s),���ϕ���,�ő�u�ԕ���(m/s),�ő啗��������,�C��(��),���x(%),10���Ԉړ��ώZ�J��(mm),1���Ԉړ��ώZ�J��(mm),���J��(mm),�݌v�J��(mm)
2022-03-28T00:00:00+09:00,1,�쐼,1.7,��쐼,7,94.1,0,0,0,0
2022-03-28T00:01:00+09:00,1.1,�쐼,1.7,��쐼,7,94.1,0,0,0,0
2022-03-28T00:02:00+09:00,1.2,�쐼,1.7,��쐼,6.9,93.9,0,0,0,0
2022-03-28T00:03:00+09:00,1.2,�쐼,1.7,��쐼,6.9,94,0,0,0,0
2022-03-28T00:04:00+09:00,1.2,�쐼,1.7,��쐼,6.8,94.2,0,0,0,0
2022-03-28T00:05:00+09:00,1.2,�쐼,1.7,��쐼,6.8,94.4,0,0,0,0
2022-03-28T00:06:00+09:00,1.1,��쐼,1.7,��쐼,6.8,94.7,0,0,0,0
2022-03-28T00:07:00+09:00,1,��쐼,1.7,��쐼,6.8,94.8,0,0,0,0
2022-03-28T00:08:00+09:00,0.9,��쐼,1.7,��쐼,6.8,95.1,0,0,0,0
2022-03-28T00:09:00+09:00,0.8,��쐼,1.6,�쐼,6.8,95.3,0,0,0,0
2022-03-28T00:10:00+09:00,0.7,��,1.6,�쐼,6.8,95.3,0,0,0,0
2022-03-28T00:11:00+09:00,0.7,��쓌,1.5,��쐼,6.8,95.2,0,0,0,0
2022-03-28T00:12:00+09:00,0.6,���쓌,1.4,�쐼,6.8,95.1,0,0,0,0
2022-03-28T00:13:00+09:00,0.5,���쓌,1.1,��,6.7,95,0,0,0,0
2022-03-28T00:14:00+09:00,0.6,��,1.1,��,6.8,94.9,0,0,0,0
2022-03-28T00:15:00+09:00,0.6,��,1.1,��,6.7,94.9,0,0,0,0
2022-03-28T00:16:00+09:00,0.6,��,1.1,��,6.7,95.1,0,0,0,0
2022-03-28T00:17:00+09:00,0.6,��,1.1,��,6.7,95.1,0,0,0,0
2022-03-28T00:18:00+09:00,0.6,��,1.1,��,6.6,95.1,0,0,0,0
2022-03-28T00:19:00+09:00,0.6,��,1.1,��,6.6,95.2,0,0,0,0
2022-03-28T00:20:00+09:00,0.5,���쓌,1.1,��,6.6,95.2,0,0,0,0
2022-03-28T00:21:00+09:00,0.4,���쓌,0.9,���k��,6.6,95.3,0,0,0,0
2022-03-28T00:22:00+09:00,0.4,��,0.8,���쓌,6.6,95.4,0,0,0,0
2022-03-28T00:23:00+09:00,0.3,��,0.8,���쓌,6.7,95.3,0,0,0,0
2022-03-28T00:24:00+09:00,0.3,���쓌,0.8,���쓌,6.6,95.4,0,0,0,0
2022-03-28T00:25:00+09:00,0.3,��쓌,0.7,��,6.7,95.3,0,0,0,0
2022-03-28T00:26:00+09:00,0.3,��쐼,0.7,��,6.7,95.3,0,0,0,0
2022-03-28T00:27:00+09:00,0.3,��쐼,1,��,6.7,95.3,0,0,0,0
2022-03-28T00:28:00+09:00,0.4,�쐼,1.4,��쐼,6.7,95.3,0,0,0,0
2022-03-28T00:29:00+09:00,0.5,�쐼,1.4,��쐼,6.6,95.4,0,0,0,0
2022-03-28T00:30:00+09:00,0.6,�쐼,1.4,��쐼,6.7,95.4,0,0,0,0
2022-03-28T00:31:00+09:00,0.7,�쐼,1.4,��쐼,6.6,95.3,0,0,0,0
2022-03-28T00:32:00+09:00,0.7,��쐼,1.4,��쐼,6.7,95.3,0,0,0,0
2022-03-28T00:33:00+09:00,0.7,��쐼,1.4,��쐼,6.7,95.4,0,0,0,0
2022-03-28T00:34:00+09:00,0.7,��,1.4,��쐼,6.6,95.2,0,0,0,0
2022-03-28T00:35:00+09:00,0.6,��,1.4,��쐼,6.6,95.2,0,0,0,0
2022-03-28T00:36:00+09:00,0.6,��,1.4,��쐼,6.6,95.2,0,0,0,0
2022-03-28T00:37:00+09:00,0.6,��,1.4,��쐼,6.6,95.2,0,0,0,0
2022-03-28T00:38:00+09:00,0.5,��,1.4,��쐼,6.6,95.2,0,0,0,0
2022-03-28T00:39:00+09:00,0.4,��,1.1,��쐼,6.6,95.3,0,0,0,0
2022-03-28T00:40:00+09:00,0.4,��,0.9,��,6.5,95.3,0,0,0,0
2022-03-28T00:41:00+09:00,0.3,��,0.6,��,6.6,95.3,0,0,0,0
2022-03-28T00:42:00+09:00,0.4,��쓌,0.6,��,6.5,95.3,0,0,0,0
2022-03-28T00:43:00+09:00,0.4,��쓌,0.6,��,6.5,95.2,0,0,0,0
2022-03-28T00:44:00+09:00,0.4,��쓌,0.6,��,6.5,95.3,0,0,0,0
2022-03-28T00:45:00+09:00,0.3,��쓌,0.6,��,6.5,95.2,0,0,0,0
2022-03-28T00:46:00+09:00,0.3,��쓌,0.6,��,6.4,95,0,0,0,0
2022-03-28T00:47:00+09:00,0.3,��쓌,0.6,��,6.4,95,0,0,0,0
2022-03-28T00:48:00+09:00,0.3,��,0.6,��,6.4,95,0,0,0,0
2022-03-28T00:49:00+09:00,0.3,��,0.6,��,6.3,95.4,0,0,0,0
2022-03-28T00:50:00+09:00,0.3,��,0.6,�쓌,6.4,95.4,0,0,0,0
2022-03-28T00:51:00+09:00,0.3,�쐼,0.6,�쓌,6.4,95.4,0,0,0,0
2022-03-28T00:52:00+09:00,0.3,��,0.6,�쓌,6.4,95.4,0,0,0,0
2022-03-28T00:53:00+09:00,0.3,���k��,0.6,�쓌,6.4,95.3,0,0,0,0
2022-03-28T00:54:00+09:00,0.3,�k��,0.6,�쓌,6.4,95.3,0,0,0,0
2022-03-28T00:55:00+09:00,0.3,�k��,0.6,�쓌,6.4,95.3,0,0,0,0
2022-03-28T00:56:00+09:00,0.4,�k��,0.6,�k�k��,6.3,95.2,0,0,0,0
2022-03-28T00:57:00+09:00,0.4,�k��,0.7,�k�k��,6.3,95.3,0,0,0,0
2022-03-28T00:58:00+09:00,0.4,�k�k��,0.7,�k�k��,6.3,95.4,0,0,0,0
2022-03-28T00:59:00+09:00,0.4,�k�k��,0.7,�k�k��,6.3,95.4,0,0,0,0
2022-03-28T01:00:00+09:00,0.4,�k�k��,0.7,�k�k��,6.2,95.4,0,0,0,0
2022-03-28T01:01:00+09:00,0.3,�k�k��,0.7,�k�k��,6.2,95.6,0,0,0,0
2022-03-28T01:02:00+09:00,0.3,�k�k��,0.7,�k�k��,6.2,95.8,0,0,0,0
2022-03-28T01:03:00+09:00,0.3,�k�k��,0.7,�k�k��,6.3,95.8,0,0,0,0
2022-03-28T01:04:00+09:00,0.2,�É�,0.7,�k�k��,6.2,95.8,0,0,0,0
2022-03-28T01:05:00+09:00,0.2,�É�,0.7,�k�k��,6.2,95.7,0,0,0,0
2022-03-28T01:06:00+09:00,0.2,�É�,0.7,�k�k��,6.2,95.6,0,0,0,0
2022-03-28T01:07:00+09:00,0.2,�É�,0.5,�쓌,6.2,95.7,0,0,0,0
2022-03-28T01:08:00+09:00,0.2,�É�,0.5,�쓌,6.2,95.8,0,0,0,0
2022-03-28T01:09:00+09:00,0.2,�É�,0.5,�쓌,6.2,95.9,0,0,0,0
2022-03-28T01:10:00+09:00,0.2,�É�,0.6,�k�k��,6.2,95.9,0,0,0,0
2022-03-28T01:11:00+09:00,0.3,�쐼,0.6,�k�k��,6.2,95.8,0,0,0,0
2022-03-28T01:12:00+09:00,0.2,�É�,0.6,�k�k��,6.3,95.7,0,0,0,0
2022-03-28T01:13:00+09:00,0.2,�É�,0.6,�k�k��,6.2,95.7,0,0,0,0
2022-03-28T01:14:00+09:00,0.3,�k�k��,0.6,�k�k��,6.2,95.6,0,0,0,0
2022-03-28T01:15:00+09:00,0.2,�É�,0.6,�k�k��,6.2,95.8,0,0,0,0
2022-03-28T01:16:00+09:00,0.2,�É�,0.6,�k�k��,6.2,95.7,0,0,0,0
2022-03-28T01:17:00+09:00,0.2,�É�,0.6,�k�k��,6.2,95.6,0,0,0,0
2022-03-28T01:18:00+09:00,0.2,�É�,0.6,�k�k��,6.2,95.5,0,0,0,0
2022-03-28T01:19:00+09:00,0.3,�k,0.6,�k�k��,6.2,95.4,0,0,0,0
2022-03-28T01:20:00+09:00,0.3,�k,0.5,�k�k��,6.2,95.3,0,0,0,0
2022-03-28T01:21:00+09:00,0.3,�k�k��,0.5,�k�k��,6.2,95.2,0,0,0,0
2022-03-28T01:22:00+09:00,0.3,�k�k��,0.5,�k�k��,6.1,95.2,0,0,0,0
2022-03-28T01:23:00+09:00,0.3,�k�k��,0.5,�k�k��,6.1,95.3,0,0,0,0
2022-03-28T01:24:00+09:00,0.3,�k�k��,0.5,�k�k��,6,95.4,0,0,0,0
2022-03-28T01:25:00+09:00,0.3,�k��,0.5,�k�k��,6,95.5,0,0,0,0
2022-03-28T01:26:00+09:00,0.3,�k��,0.5,�k�k��,6,95.5,0,0,0,0
2022-03-28T01:27:00+09:00,0.3,�k��,0.5,�k�k��,6,95.7,0,0,0,0
2022-03-28T01:28:00+09:00,0.3,�k��,0.5,�k�k��,6.1,95.8,0,0,0,0
2022-03-28T01:29:00+09:00,0.2,�É�,0.5,�k�k��,6.1,95.8,0,0,0,0
2022-03-28T01:30:00+09:00,0.2,�É�,0.5,�k�k��,6.1,95.8,0,0,0,0
2022-03-28T01:31:00+09:00,0.2,�É�,0.5,�k�k��,6.1,95.9,0,0,0,0
2022-03-28T01:32:00+09:00,0.2,�É�,0.5,�k�k��,6.2,95.9,0,0,0,0
2022-03-28T01:33:00+09:00,0.1,�É�,0.5,�k�k��,6.1,95.8,0,0,0,0
2022-03-28T01:34:00+09:00,0.2,�É�,0.6,�k��,6.2,95.9,0,0,0,0
2022-03-28T01:35:00+09:00,0.2,�É�,0.6,�k��,6.1,95.7,0,0,0,0
2022-03-28T01:36:00+09:00,0.2,�É�,0.6,�k��,6.1,95.8,0,0,0,0
2022-03-28T01:37:00+09:00,0.2,�É�,0.6,�k��,6.1,95.8,0,0,0,0
2022-03-28T01:38:00+09:00,0.2,�É�,0.8,��,6.1,95.8,0,0,0,0
2022-03-28T01:39:00+09:00,0.2,�É�,0.8,��,6.1,95.7,0,0,0,0
2022-03-28T01:40:00+09:00,0.3,��,0.8,��,6.1,95.6,0,0,0,0
2022-03-28T01:41:00+09:00,0.3,���k��,0.8,��,6.1,95.6,0,0,0,0
2022-03-28T01:42:00+09:00,0.3,��,0.8,��,6,95.6,0,0,0,0
2022-03-28T01:43:00+09:00,0.3,�쓌,0.9,��쐼,6,95.6,0,0,0,0
2022-03-28T01:44:00+09:00,0.4,��쓌,1,�쓌,5.9,95.4,0,0,0,0
2022-03-28T01:45:00+09:00,0.4,��쓌,1,�쓌,5.9,95.3,0,0,0,0
2022-03-28T01:46:00+09:00,0.4,�쓌,1,�쓌,5.9,95.4,0,0,0,0
2022-03-28T01:47:00+09:00,0.4,�쓌,1,�쓌,5.8,95.5,0,0,0,0
2022-03-28T01:48:00+09:00,0.4,��쓌,1,�쓌,5.8,95.6,0,0,0,0
2022-03-28T01:49:00+09:00,0.3,���쐼,1,�쓌,5.8,95.6,0,0,0,0
2022-03-28T01:50:00+09:00,0.3,��,1,�쓌,5.8,95.8,0,0,0,0
2022-03-28T01:51:00+09:00,0.3,���k��,1,�쓌,5.8,95.9,0,0,0,0
2022-03-28T01:52:00+09:00,0.3,�k�k��,1,�쓌,5.9,95.9,0,0,0,0
2022-03-28T01:53:00+09:00,0.3,�k�k��,1,�쓌,5.8,95.8,0,0,0,0
2022-03-28T01:54:00+09:00,0.2,�É�,1,�쓌,5.9,95.9,0,0,0,0
2022-03-28T01:55:00+09:00,0.1,�É�,0.7,�k��,5.9,95.9,0,0,0,0
2022-03-28T01:56:00+09:00,0.1,�É�,0.7,�k��,5.9,95.8,0,0,0,0
2022-03-28T01:57:00+09:00,0.1,�É�,0.7,�k��,5.9,95.9,0,0,0,0
2022-03-28T01:58:00+09:00,0.2,�É�,0.7,�k��,5.8,95.8,0,0,0,0
2022-03-28T01:59:00+09:00,0.2,�É�,0.7,�k��,5.9,95.8,0,0,0,0
2022-03-28T02:00:00+09:00,0.2,�É�,0.7,�k��,5.8,95.8,0,0,0,0
2022-03-28T02:01:00+09:00,0.3,���k��,0.7,�k��,5.9,95.9,0,0,0,0
2022-03-28T02:02:00+09:00,0.3,��,0.7,��쐼,5.8,95.8,0,0,0,0
2022-03-28T02:03:00+09:00,0.3,��,0.7,��쐼,5.9,95.8,0,0,0,0
2022-03-28T02:04:00+09:00,0.3,���쐼,0.7,��쐼,5.8,96,0,0,0,0
2022-03-28T02:05:00+09:00,0.3,�쐼,0.7,��쐼,5.8,95.9,0,0,0,0
2022-03-28T02:06:00+09:00,0.4,�쐼,0.8,��,5.9,95.9,0,0,0,0
2022-03-28T02:07:00+09:00,0.5,��쐼,1.2,��,5.8,95.7,0,0,0,0
2022-03-28T02:08:00+09:00,0.5,��쐼,1.2,��,5.8,95.7,0,0,0,0
2022-03-28T02:09:00+09:00,0.6,��,1.3,��쓌,5.7,95.6,0,0,0,0
2022-03-28T02:10:00+09:00,0.7,��,1.3,��쓌,5.7,95.6,0,0,0,0
2022-03-28T02:11:00+09:00,0.7,��,1.3,��쓌,5.6,95.7,0,0,0,0
2022-03-28T02:12:00+09:00,0.8,��,1.5,��,5.7,95.8,0,0,0,0
2022-03-28T02:13:00+09:00,0.9,��,1.5,��,5.6,95.8,0,0,0,0
2022-03-28T02:14:00+09:00,1,��쓌,1.5,��,5.6,95.8,0,0,0,0
2022-03-28T02:15:00+09:00,1,��쓌,1.5,��,5.6,95.8,0,0,0,0
2022-03-28T02:16:00+09:00,1.1,��쓌,1.5,��,5.5,95.9,0,0,0,0
2022-03-28T02:17:00+09:00,1.1,��쓌,1.6,��,5.6,96,0,0,0,0
2022-03-28T02:18:00+09:00,1.2,��,1.7,��쐼,5.5,96.1,0,0,0,0
2022-03-28T02:19:00+09:00,1.2,��,1.7,��쐼,5.6,96.2,0,0,0,0
2022-03-28T02:20:00+09:00,1.2,��,1.7,��쐼,5.5,96.2,0,0,0,0
2022-03-28T02:21:00+09:00,1.3,��,1.7,��쐼,5.6,96.2,0,0,0,0
2022-03-28T02:22:00+09:00,1.3,��,1.7,��쐼,5.6,96.2,0,0,0,0
2022-03-28T02:23:00+09:00,1.3,��,1.7,��쐼,5.6,96.2,0,0,0,0
2022-03-28T02:24:00+09:00,1.2,��쐼,1.7,��쐼,5.6,96.4,0,0,0,0
2022-03-28T02:25:00+09:00,1.2,��쐼,1.7,��쐼,5.6,96.5,0,0,0,0
2022-03-28T02:26:00+09:00,1.2,��쐼,1.7,��쐼,5.6,96.4,0,0,0,0
2022-03-28T02:27:00+09:00,1.1,�쐼,1.7,��쐼,5.6,96.4,0,0,0,0
2022-03-28T02:28:00+09:00,1,�쐼,1.5,��쐼,5.7,96.4,0,0,0,0
2022-03-28T02:29:00+09:00,1,�쐼,3.4,�k�k��,5.7,96.6,0,0,0,0
2022-03-28T02:30:00+09:00,1.3,���쐼,5.4,�k�k��,5.7,96.3,0,0,0,0
2022-03-28T02:31:00+09:00,1.7,��,6.7,�k�k��,5.6,96.1,0,0,0,0
2022-03-28T02:32:00+09:00,2.4,��,9.7,�k�k��,5.6,96.1,0,0,0,0
2022-03-28T02:33:00+09:00,3,���k��,9.7,�k�k��,5.6,96.2,0,0,0,0
2022-03-28T02:34:00+09:00,3.5,���k��,9.7,�k�k��,5.5,96.1,0,0,0,0
2022-03-28T02:35:00+09:00,3.9,�k��,9.7,�k�k��,5.5,96.2,0,0,0,0
2022-03-28T02:36:00+09:00,4.3,�k��,9.7,�k�k��,5.5,96.3,0,0,0,0
2022-03-28T02:37:00+09:00,4.6,�k��,9.7,�k�k��,5.5,96.4,0,0,0,0
2022-03-28T02:38:00+09:00,4.8,�k�k��,9.7,�k�k��,5.5,96.5,0,0,0,0
2022-03-28T02:39:00+09:00,5,�k�k��,9.7,�k�k��,5.5,96.5,0,0,0,0
2022-03-28T02:40:00+09:00,4.8,�k�k��,9.7,�k�k��,5.5,96.5,0,0,0,0
2022-03-28T02:41:00+09:00,4.5,�k�k��,9.7,�k�k��,5.5,96.5,0,0,0,0
2022-03-28T02:42:00+09:00,3.9,�k�k��,9.2,�k�k��,5.5,96.6,0,0,0,0
2022-03-28T02:43:00+09:00,3.4,�k�k��,7.4,�k��,5.6,96.7,0,0,0,0
2022-03-28T02:44:00+09:00,3.1,�k�k��,6.5,�k�k��,5.7,97,0,0,0,0
2022-03-28T02:45:00+09:00,2.8,�k,5.9,�k,5.8,97.3,0,0,0,0
2022-03-28T02:46:00+09:00,2.6,�k,5.1,�k�k��,5.9,97.3,0,0,0,0
2022-03-28T02:47:00+09:00,2.6,�k,4,�k�k��,5.9,97.2,0,0,0,0
2022-03-28T02:48:00+09:00,2.7,�k,4,�k�k��,6,97.2,0,0,0,0
2022-03-28T02:49:00+09:00,2.6,�k,3.8,�k�k��,6,97.2,0,0,0,0
2022-03-28T02:50:00+09:00,2.5,�k,3.8,�k�k��,6.2,97.1,0,0,0,0
2022-03-28T02:51:00+09:00,2.3,�k,3.8,�k�k��,6.2,97.1,0,0,0,0
2022-03-28T02:52:00+09:00,2.2,�k,3.8,�k�k��,6.2,96.8,0,0,0,0
2022-03-28T02:53:00+09:00,2.1,�k,3.8,�k�k��,6.2,96.7,0,0,0,0
2022-03-28T02:54:00+09:00,1.9,�k,3.8,�k�k��,6.1,96.7,0,0,0,0
2022-03-28T02:55:00+09:00,1.8,�k,3.7,�k�k��,6.1,96.8,0,0,0,0
2022-03-28T02:56:00+09:00,1.6,�k,3.7,�k�k��,6.1,96.8,0,0,0,0
2022-03-28T02:57:00+09:00,1.4,�k,3.7,�k�k��,6.1,96.7,0,0,0,0
2022-03-28T02:58:00+09:00,1.3,�k,3.1,�k�k��,6.1,96.8,0,0,0,0
2022-03-28T02:59:00+09:00,1.2,�k,2.4,�k�k��,6.2,96.8,0,0,0,0
2022-03-28T03:00:00+09:00,1.3,�k,2.9,�k�k��,6.2,96.9,0,0,0,0
2022-03-28T03:01:00+09:00,1.3,�k�k��,2.9,�k�k��,6.2,96.9,0,0,0,0
2022-03-28T03:02:00+09:00,1.3,�k�k��,2.9,�k�k��,6.2,96.9,0,0,0,0
2022-03-28T03:03:00+09:00,1.3,�k�k��,2.9,�k�k��,6.3,96.8,0,0,0,0
2022-03-28T03:04:00+09:00,1.4,�k�k��,2.9,�k�k��,6.3,96.7,0,0,0,0
2022-03-28T03:05:00+09:00,1.4,�k��,2.9,�k�k��,6.4,96.8,0,0,0,0
2022-03-28T03:06:00+09:00,1.4,�k��,2.9,�k�k��,6.4,96.8,0,0,0,0
2022-03-28T03:07:00+09:00,1.4,�k��,2.9,�k�k��,6.5,96.8,0,0,0,0
2022-03-28T03:08:00+09:00,1.4,�k��,2.9,�k�k��,6.5,96.7,0,0,0,0
2022-03-28T03:09:00+09:00,1.5,�k��,3,�k��,6.5,96.7,0,0,0,0
2022-03-28T03:10:00+09:00,1.5,�k��,3,�k��,6.6,96.8,0,0,0,0
2022-03-28T03:11:00+09:00,1.6,�k��,3.1,�k�k��,6.7,96.7,0,0,0,0
2022-03-28T03:12:00+09:00,1.6,�k��,3.1,�k�k��,6.8,96.6,0,0,0,0
2022-03-28T03:13:00+09:00,1.6,�k��,3.1,�k�k��,6.8,96.3,0,0,0,0
2022-03-28T03:14:00+09:00,1.5,�k��,3.1,�k�k��,6.9,96.2,0,0,0,0
2022-03-28T03:15:00+09:00,1.4,�k��,3.1,�k�k��,6.9,95.9,0,0,0,0
2022-03-28T03:16:00+09:00,1.4,�k�k��,4.1,�k�k��,7,95.7,0,0,0,0
2022-03-28T03:17:00+09:00,1.4,�k�k��,4.1,�k�k��,7,95.5,0,0,0,0
2022-03-28T03:18:00+09:00,1.5,�k�k��,4.1,�k�k��,7.1,95.6,0,0,0,0
2022-03-28T03:19:00+09:00,1.5,�k,5.6,�k,7.2,95.2,0,0,0,0
2022-03-28T03:20:00+09:00,1.8,�k,6.9,�k�k��,7.3,94.6,0,0,0,0
2022-03-28T03:21:00+09:00,2.2,�k,7.7,�k�k��,7.6,91.2,0,0,0,0
2022-03-28T03:22:00+09:00,2.6,�k�k��,7.7,�k�k��,7.9,84.9,0,0,0,0
2022-03-28T03:23:00+09:00,3.1,�k�k��,7.7,�k�k��,8.2,79.2,0,0,0,0
2022-03-28T03:24:00+09:00,3.5,�k,7.7,�k�k��,8.4,76.1,0,0,0,0
2022-03-28T03:25:00+09:00,3.8,�k,7.7,�k�k��,8.6,74.6,0,0,0,0
2022-03-28T03:26:00+09:00,4,�k,7.7,�k�k��,8.7,73.8,0,0,0,0
2022-03-28T03:27:00+09:00,4.2,�k,7.7,�k�k��,8.8,73.2,0,0,0,0
2022-03-28T03:28:00+09:00,4.4,�k,7.7,�k�k��,8.9,72.9,0,0,0,0
2022-03-28T03:29:00+09:00,4.6,�k,7.7,�k�k��,8.9,72.2,0,0,0,0
2022-03-28T03:30:00+09:00,4.6,�k,7.7,�k�k��,9,71.3,0,0,0,0
2022-03-28T03:31:00+09:00,4.5,�k,6.9,�k�k��,9,70.8,0,0,0,0
2022-03-28T03:32:00+09:00,4.3,�k,6.7,�k�k��,9.1,70.5,0,0,0,0
2022-03-28T03:33:00+09:00,4.2,�k,6.6,�k,9.1,70.5,0,0,0,0
2022-03-28T03:34:00+09:00,4.2,�k,6.6,�k,9.1,70.6,0,0,0,0
2022-03-28T03:35:00+09:00,4.2,�k,6.6,�k,9.1,70.4,0,0,0,0
2022-03-28T03:36:00+09:00,4.2,�k,6.6,�k,9.1,70.5,0,0,0,0
2022-03-28T03:37:00+09:00,4.3,�k,6.6,�k,9.1,71.2,0,0,0,0
2022-03-28T03:38:00+09:00,4.2,�k,6.6,�k,9,71.7,0,0,0,0
2022-03-28T03:39:00+09:00,4.1,�k,6.6,�k,9,72.3,0,0,0,0
2022-03-28T03:40:00+09:00,3.9,�k,5.7,�k,9,72.7,0,0,0,0
2022-03-28T03:41:00+09:00,3.7,�k,5.7,�k,9,72.6,0,0,0,0
2022-03-28T03:42:00+09:00,3.5,�k�k��,5.7,�k,8.9,72.9,0,0,0,0
2022-03-28T03:43:00+09:00,3.4,�k�k��,5.7,�k,8.9,72.9,0,0,0,0
2022-03-28T03:44:00+09:00,3.2,�k�k��,5.6,�k��,8.9,72.8,0,0,0,0
2022-03-28T03:45:00+09:00,3.1,�k�k��,5.6,�k��,8.9,73.2,0,0,0,0
2022-03-28T03:46:00+09:00,3.1,�k�k��,5.6,�k��,8.8,73.3,0,0,0,0
2022-03-28T03:47:00+09:00,3,�k�k��,5.6,�k��,8.8,73.1,0,0,0,0
2022-03-28T03:48:00+09:00,3.1,�k�k��,5.7,�k�k��,8.8,72.7,0,0,0,0
2022-03-28T03:49:00+09:00,3.1,�k�k��,5.7,�k�k��,8.8,72.4,0,0,0,0
2022-03-28T03:50:00+09:00,2.9,�k�k��,5.7,�k�k��,8.8,73.1,0,0,0,0
2022-03-28T03:51:00+09:00,2.9,�k�k��,5.7,�k�k��,8.8,74.1,0,0,0,0
2022-03-28T03:52:00+09:00,2.8,�k�k��,5.7,�k�k��,8.8,73.8,0,0,0,0
2022-03-28T03:53:00+09:00,2.7,�k�k��,5.7,�k�k��,8.7,73.8,0,0,0,0
2022-03-28T03:54:00+09:00,2.6,�k�k��,5.7,�k�k��,8.8,73.9,0,0,0,0
2022-03-28T03:55:00+09:00,2.6,�k�k��,5.7,�k�k��,8.7,73.4,0,0,0,0
2022-03-28T03:56:00+09:00,2.5,�k�k��,5.7,�k�k��,8.7,73.2,0,0,0,0
2022-03-28T03:57:00+09:00,2.5,�k�k��,5.7,�k�k��,8.7,73.1,0,0,0,0
2022-03-28T03:58:00+09:00,2.3,�k�k��,4,�k�k��,8.7,72.9,0,0,0,0
2022-03-28T03:59:00+09:00,2.2,�k�k��,4,�k�k��,8.8,72.8,0,0,0,0
2022-03-28T04:00:00+09:00,2.3,�k�k��,4.4,�k,8.7,73,0,0,0,0
2022-03-28T04:01:00+09:00,2.4,�k�k��,4.5,�k,8.8,73,0,0,0,0
2022-03-28T04:02:00+09:00,2.5,�k�k��,4.5,�k,8.7,72.8,0,0,0,0
2022-03-28T04:03:00+09:00,2.6,�k�k��,4.5,�k,8.7,72.7,0,0,0,0
2022-03-28T04:04:00+09:00,2.6,�k�k��,4.5,�k,8.7,72.9,0,0,0,0
2022-03-28T04:05:00+09:00,2.6,�k�k��,4.5,�k,8.7,73.1,0,0,0,0
2022-03-28T04:06:00+09:00,2.5,�k�k��,4.5,�k,8.7,72.8,0,0,0,0
2022-03-28T04:07:00+09:00,2.4,�k�k��,4.5,�k,8.7,72.4,0,0,0,0
2022-03-28T04:08:00+09:00,2.4,�k�k��,4.5,�k,8.8,72.3,0,0,0,0
2022-03-28T04:09:00+09:00,2.5,�k�k��,4.5,�k,8.7,72,0,0,0,0
2022-03-28T04:10:00+09:00,2.5,�k�k��,4.5,�k,8.8,70.9,0,0,0,0
2022-03-28T04:11:00+09:00,2.4,�k�k��,4.3,�k,8.8,70.9,0,0,0,0
2022-03-28T04:12:00+09:00,2.5,�k�k��,4.5,�k�k��,8.8,70.6,0,0,0,0
2022-03-28T04:13:00+09:00,2.5,�k�k��,4.5,�k�k��,8.8,70.6,0,0,0,0
2022-03-28T04:14:00+09:00,2.6,�k�k��,4.5,�k�k��,8.8,71.1,0,0,0,0
2022-03-28T04:15:00+09:00,2.6,�k�k��,4.5,�k�k��,8.8,71,0,0,0,0
2022-03-28T04:16:00+09:00,2.7,�k�k��,4.7,�k,8.8,71,0,0,0,0
2022-03-28T04:17:00+09:00,2.9,�k�k��,5,�k,8.9,70.7,0,0,0,0
2022-03-28T04:18:00+09:00,3,�k�k��,5.9,�k�k��,8.8,69.4,0,0,0,0
2022-03-28T04:19:00+09:00,3.2,�k,5.9,�k�k��,8.9,67.1,0,0,0,0
2022-03-28T04:20:00+09:00,3.5,�k,6.3,�k,8.9,64.4,0,0,0,0
2022-03-28T04:21:00+09:00,3.5,�k,6.3,�k,9.1,62.7,0,0,0,0
2022-03-28T04:22:00+09:00,3.5,�k,6.3,�k,9.1,62.7,0,0,0,0
2022-03-28T04:23:00+09:00,3.5,�k,6.3,�k,9.2,64.1,0,0,0,0
2022-03-28T04:24:00+09:00,3.8,�k,6.7,�k,9.2,63.9,0,0,0,0
2022-03-28T04:25:00+09:00,4.1,�k,7.4,�k,9.2,61.5,0,0,0,0
2022-03-28T04:26:00+09:00,4.3,�k,7.4,�k,9.3,60.2,0,0,0,0
2022-03-28T04:27:00+09:00,4.3,�k,7.4,�k,9.3,60,0,0,0,0
2022-03-28T04:28:00+09:00,4.2,�k�k��,7.4,�k,9.4,60.7,0,0,0,0
2022-03-28T04:29:00+09:00,4,�k�k��,7.4,�k,9.3,61.9,0,0,0,0
2022-03-28T04:30:00+09:00,3.8,�k�k��,7.4,�k,9.3,62.8,0,0,0,0
2022-03-28T04:31:00+09:00,3.8,�k�k��,7.4,�k,9.2,63.4,0,0,0,0
2022-03-28T04:32:00+09:00,3.8,�k�k��,7.4,�k,9.2,63.8,0,0,0,0
2022-03-28T04:33:00+09:00,3.9,�k�k��,7.4,�k,9.2,63.5,0,0,0,0
2022-03-28T04:34:00+09:00,3.9,�k�k��,7.4,�k,9.1,63.8,0,0,0,0
2022-03-28T04:35:00+09:00,3.7,�k�k��,5.9,�k�k��,9.1,64,0,0,0,0
2022-03-28T04:36:00+09:00,3.5,�k�k��,5.8,�k�k��,9.1,64.3,0,0,0,0
2022-03-28T04:37:00+09:00,3.5,�k�k��,5.1,�k��,9.1,64.4,0,0,0,0
2022-03-28T04:38:00+09:00,3.5,�k�k��,5.1,�k��,9,64.1,0,0,0,0
2022-03-28T04:39:00+09:00,3.7,�k�k��,5.3,�k�k��,9.1,64.2,0,0,0,0
2022-03-28T04:40:00+09:00,3.7,�k�k��,5.3,�k�k��,9,63.7,0,0,0,0
2022-03-28T04:41:00+09:00,3.7,�k�k��,5.3,�k�k��,9.1,63.6,0,0,0,0
2022-03-28T04:42:00+09:00,3.8,�k�k��,6.2,�k,9,63.6,0,0,0,0
2022-03-28T04:43:00+09:00,3.9,�k�k��,6.2,�k,9,62.7,0,0,0,0
2022-03-28T04:44:00+09:00,4,�k�k��,6.8,�k�k��,9.1,62.5,0,0,0,0
2022-03-28T04:45:00+09:00,3.9,�k�k��,6.8,�k�k��,9.1,62.5,0,0,0,0
2022-03-28T04:46:00+09:00,3.9,�k�k��,6.8,�k�k��,9.1,62.6,0,0,0,0
2022-03-28T04:47:00+09:00,4,�k�k��,6.8,�k�k��,9.1,62.2,0,0,0,0
2022-03-28T04:48:00+09:00,4.1,�k�k��,7,�k�k��,9.1,61.8,0,0,0,0
2022-03-28T04:49:00+09:00,4.3,�k�k��,7,�k�k��,9.1,61,0,0,0,0
2022-03-28T04:50:00+09:00,4.4,�k�k��,7,�k�k��,9.2,60.9,0,0,0,0
2022-03-28T04:51:00+09:00,4.5,�k�k��,7,�k�k��,9.2,61.1,0,0,0,0
2022-03-28T04:52:00+09:00,4.6,�k�k��,8.5,�k�k��,9.2,60.8,0,0,0,0
2022-03-28T04:53:00+09:00,4.8,�k�k��,8.5,�k�k��,9.2,60,0,0,0,0
2022-03-28T04:54:00+09:00,4.9,�k�k��,8.8,�k�k��,9.3,60.4,0,0,0,0
2022-03-28T04:55:00+09:00,5.1,�k�k��,8.8,�k�k��,9.3,60.1,0,0,0,0
2022-03-28T04:56:00+09:00,5.6,�k�k��,11.5,�k�k��,9.3,59.6,0,0,0,0
2022-03-28T04:57:00+09:00,6,�k�k��,11.5,�k�k��,9.3,58.8,0,0,0,0
2022-03-28T04:58:00+09:00,6.2,�k�k��,11.5,�k�k��,9.3,58.6,0,0,0,0
2022-03-28T04:59:00+09:00,6.2,�k�k��,11.5,�k�k��,9.4,58.7,0,0,0,0
2022-03-28T05:00:00+09:00,6.4,�k�k��,11.5,�k�k��,9.3,58.7,0,0,0,0
2022-03-28T05:01:00+09:00,6.7,�k�k��,11.5,�k�k��,9.3,58,0,0,0,0
2022-03-28T05:02:00+09:00,6.7,�k�k��,11.5,�k�k��,9.3,57.6,0,0,0,0
2022-03-28T05:03:00+09:00,6.8,�k�k��,11.5,�k�k��,9.3,57.4,0,0,0,0
2022-03-28T05:04:00+09:00,6.8,�k�k��,11.5,�k�k��,9.3,56.9,0,0,0,0
2022-03-28T05:05:00+09:00,6.9,�k�k��,11.5,�k�k��,9.3,56.7,0,0,0,0
2022-03-28T05:06:00+09:00,6.6,�k�k��,10,�k,9.3,56.6,0,0,0,0
2022-03-28T05:07:00+09:00,6.2,�k�k��,10,�k,9.3,56.2,0,0,0,0
2022-03-28T05:08:00+09:00,6.2,�k�k��,10,�k,9.3,56.6,0,0,0,0
2022-03-28T05:09:00+09:00,6.2,�k�k��,10,�k,9.3,55.4,0,0,0,0
2022-03-28T05:10:00+09:00,6.1,�k�k��,9.2,�k,9.3,56.2,0,0,0,0
2022-03-28T05:11:00+09:00,6.1,�k�k��,10.4,�k�k��,9.2,55.8,0,0,0,0
2022-03-28T05:12:00+09:00,6.1,�k�k��,10.4,�k�k��,9.2,54.3,0,0,0,0
2022-03-28T05:13:00+09:00,6.1,�k�k��,10.4,�k�k��,9.3,54.2,0,0,0,0
2022-03-28T05:14:00+09:00,6,�k�k��,10.4,�k�k��,9.3,55.2,0,0,0,0
2022-03-28T05:15:00+09:00,5.9,�k�k��,10.4,�k�k��,9.3,55.8,0,0,0,0
2022-03-28T05:16:00+09:00,6,�k�k��,10.4,�k�k��,9.2,55.5,0,0,0,0
2022-03-28T05:17:00+09:00,6.2,�k�k��,10.4,�k�k��,9.3,55.4,0,0,0,0
2022-03-28T05:18:00+09:00,6.2,�k�k��,10.4,�k�k��,9.2,54.9,0,0,0,0
2022-03-28T05:19:00+09:00,6.2,�k�k��,10.4,�k�k��,9.2,54.7,0,0,0,0
2022-03-28T05:20:00+09:00,6.2,�k�k��,10.4,�k�k��,9.2,55.1,0,0,0,0
2022-03-28T05:21:00+09:00,6,�k�k��,9.8,�k�k��,9.2,55.6,0,0,0,0
2022-03-28T05:22:00+09:00,5.7,�k�k��,8.8,�k�k��,9.2,55.6,0,0,0,0
2022-03-28T05:23:00+09:00,5.4,�k�k��,8.8,�k�k��,9.2,56.2,0,0,0,0
2022-03-28T05:24:00+09:00,5.3,�k�k��,8.8,�k�k��,9.2,56.6,0,0,0,0
2022-03-28T05:25:00+09:00,5.5,�k�k��,8.8,�k�k��,9.1,56.4,0,0,0,0
2022-03-28T05:26:00+09:00,5.3,�k�k��,8.5,�k�k��,9.1,56.2,0,0,0,0
2022-03-28T05:27:00+09:00,5.2,�k�k��,8.3,�k��,9.1,56.5,0,0,0,0
2022-03-28T05:28:00+09:00,5.1,�k�k��,8.3,�k��,9.1,56.7,0,0,0,0
2022-03-28T05:29:00+09:00,4.9,�k�k��,8.2,�k��,9.1,57.1,0,0,0,0
2022-03-28T05:30:00+09:00,4.8,�k�k��,8.2,�k��,9,57.6,0,0,0,0
2022-03-28T05:31:00+09:00,5,�k�k��,8.2,�k��,9,57.8,0,0,0,0
2022-03-28T05:32:00+09:00,5,�k,8.2,�k��,9,57.8,0,0,0,0
2022-03-28T05:33:00+09:00,5.1,�k,8.2,�k��,9,57.9,0,0,0,0
2022-03-28T05:34:00+09:00,5.2,�k,8.2,�k��,9,58.1,0,0,0,0
2022-03-28T05:35:00+09:00,5.2,�k,7.1,�k�k��,9,57.8,0,0,0,0
2022-03-28T05:36:00+09:00,5.3,�k,8.4,�k�k��,9,57.3,0,0,0,0
2022-03-28T05:37:00+09:00,5.4,�k,8.4,�k�k��,9,57.1,0,0,0,0
2022-03-28T05:38:00+09:00,5.4,�k,8.4,�k�k��,9,57,0,0,0,0
2022-03-28T05:39:00+09:00,5.6,�k,8.4,�k�k��,9,56.8,0,0,0,0
2022-03-28T05:40:00+09:00,5.6,�k,8.4,�k�k��,9,56.9,0,0,0,0
2022-03-28T05:41:00+09:00,5.6,�k,8.4,�k�k��,9,57.1,0,0,0,0
2022-03-28T05:42:00+09:00,5.8,�k,8.4,�k�k��,9,57,0,0,0,0
2022-03-28T05:43:00+09:00,6,�k,8.4,�k�k��,9,56.7,0,0,0,0
2022-03-28T05:44:00+09:00,6.1,�k,8.4,�k�k��,9,56.9,0,0,0,0
2022-03-28T05:45:00+09:00,6.2,�k,8.4,�k�k��,9,56.4,0,0,0,0
2022-03-28T05:46:00+09:00,6.2,�k,9.3,�k,9,56.3,0,0,0,0
2022-03-28T05:47:00+09:00,6.2,�k,9.3,�k,8.9,55.7,0,0,0,0
2022-03-28T05:48:00+09:00,6.4,�k,9.4,�k,8.9,54.8,0,0,0,0
2022-03-28T05:49:00+09:00,6.5,�k,10.3,�k,8.9,54.4,0,0,0,0
2022-03-28T05:50:00+09:00,6.7,�k,10.3,�k,8.9,54.4,0,0,0,0
2022-03-28T05:51:00+09:00,6.8,�k,10.3,�k,8.9,54.4,0,0,0,0
2022-03-28T05:52:00+09:00,6.9,�k,10.3,�k,8.9,54.1,0,0,0,0
2022-03-28T05:53:00+09:00,7,�k,10.3,�k,8.9,53.8,0,0,0,0
2022-03-28T05:54:00+09:00,7.2,�k,10.3,�k,8.9,53.2,0,0,0,0
2022-03-28T05:55:00+09:00,7.3,�k,10.3,�k,8.9,53.2,0,0,0,0
2022-03-28T05:56:00+09:00,7.5,�k,10.3,�k,8.9,53.1,0,0,0,0
2022-03-28T05:57:00+09:00,7.6,�k,10.3,�k,8.9,52.5,0,0,0,0
2022-03-28T05:58:00+09:00,7.6,�k,10.3,�k,8.9,52.3,0,0,0,0
2022-03-28T05:59:00+09:00,7.7,�k,10.3,�k�k��,8.9,52.3,0,0,0,0
2022-03-28T06:00:00+09:00,7.6,�k,10.3,�k�k��,8.9,52.9,0,0,0,0
2022-03-28T06:01:00+09:00,7.7,�k,10.3,�k�k��,8.8,53,0,0,0,0
2022-03-28T06:02:00+09:00,7.6,�k,10.3,�k�k��,8.8,53,0,0,0,0
2022-03-28T06:03:00+09:00,7.5,�k,10.3,�k�k��,8.8,53.7,0,0,0,0
2022-03-28T06:04:00+09:00,7.4,�k,10.3,�k�k��,8.8,53.9,0,0,0,0
2022-03-28T06:05:00+09:00,7.5,�k,11.5,�k,8.7,53.6,0,0,0,0
2022-03-28T06:06:00+09:00,7.4,�k,11.5,�k,8.8,53,0,0,0,0
2022-03-28T06:07:00+09:00,7.5,�k,11.5,�k,8.7,53.1,0,0,0,0
2022-03-28T06:08:00+09:00,7.6,�k,11.5,�k,8.7,53,0,0,0,0
2022-03-28T06:09:00+09:00,7.7,�k,11.5,�k,8.7,52.7,0,0,0,0
2022-03-28T06:10:00+09:00,7.9,�k,11.5,�k,8.7,52.8,0,0,0,0
2022-03-28T06:11:00+09:00,7.7,�k,11.5,�k,8.7,53.1,0,0,0,0
2022-03-28T06:12:00+09:00,7.8,�k,11.5,�k,8.7,53.1,0,0,0,0
2022-03-28T06:13:00+09:00,8,�k,11.5,�k,8.7,53.2,0,0,0,0
2022-03-28T06:14:00+09:00,7.9,�k,11.5,�k,8.7,53.3,0,0,0,0
2022-03-28T06:15:00+09:00,7.8,�k,10.8,�k�k��,8.7,53.3,0,0,0,0
2022-03-28T06:16:00+09:00,7.7,�k,10.8,�k�k��,8.7,53.1,0,0,0,0
2022-03-28T06:17:00+09:00,7.4,�k,10.8,�k�k��,8.7,53.8,0,0,0,0
2022-03-28T06:18:00+09:00,7.3,�k,10.8,�k�k��,8.6,53.8,0,0,0,0
2022-03-28T06:19:00+09:00,7.1,�k,10,�k�k��,8.6,53.6,0,0,0,0
2022-03-28T06:20:00+09:00,6.8,�k,10,�k�k��,8.6,53.9,0,0,0,0
2022-03-28T06:21:00+09:00,6.8,�k,10,�k�k��,8.6,54,0,0,0,0
2022-03-28T06:22:00+09:00,6.6,�k,10,�k�k��,8.6,54.1,0,0,0,0
2022-03-28T06:23:00+09:00,6.6,�k,10,�k�k��,8.6,53.7,0,0,0,0
2022-03-28T06:24:00+09:00,6.6,�k,10,�k�k��,8.6,53.4,0,0,0,0
2022-03-28T06:25:00+09:00,6.4,�k,10,�k�k��,8.6,53.5,0,0,0,0
2022-03-28T06:26:00+09:00,6.3,�k,10,�k�k��,8.6,54,0,0,0,0
2022-03-28T06:27:00+09:00,6.4,�k,10,�k�k��,8.6,53.8,0,0,0,0
2022-03-28T06:28:00+09:00,6.4,�k,9.8,�k�k��,8.6,53.6,0,0,0,0
2022-03-28T06:29:00+09:00,6.5,�k,9.8,�k�k��,8.6,53.5,0,0,0,0
2022-03-28T06:30:00+09:00,6.6,�k,9.8,�k�k��,8.6,53.5,0,0,0,0
2022-03-28T06:31:00+09:00,6.8,�k,10.5,�k,8.6,53.8,0,0,0,0
2022-03-28T06:32:00+09:00,6.9,�k,10.5,�k,8.6,53.5,0,0,0,0
2022-03-28T06:33:00+09:00,6.9,�k,10.5,�k,8.6,53.7,0,0,0,0
2022-03-28T06:34:00+09:00,6.9,�k,10.5,�k,8.6,53.9,0,0,0,0